Time,TemperatureF,DewpointF,PressureIn,WindDirection,WindDirectionDegrees,WindSpeedMPH,WindSpeedGustMPH,Humidity,HourlyPrecipIn,Conditions,Clouds,dailyrainin,SoftwareType,DateUTC
2013-01-13 00:00:00,35.6,36.0,29.67,SSW,202,0.0,0.0,100,0.00,,,0.00,Rainwise IP-100,2013-01-13 05:00:00,
2013-01-13 00:01:00,35.6,36.0,29.67,SSW,202,0.0,0.0,100,0.00,,,0.00,Rainwise IP-100,2013-01-13 05:01:00,
2013-01-13 00:06:00,35.6,36.0,29.67,SSW,202,0.0,0.0,100,0.00,,,0.00,Rainwise IP-100,2013-01-13 05:06:00,
2013-01-13 00:11:00,35.7,36.0,29.67,SSW,202,0.0,0.0,100,0.00,,,0.00,Rainwise IP-100,2013-01-13 05:11:00,
2013-01-13 00:16:00,35.4,35.0,29.67,SSW,202,0.0,0.0,100,0.00,,,0.00,Rainwise IP-100,2013-01-13 05:16:00,
2013-01-13 00:21:00,35.3,35.0,29.67,SSW,202,0.0,0.0,100,0.00,,,0.00,Rainwise IP-100,2013-01-13 05:21:00,
2013-01-13 00:26:00,35.4,35.0,29.67,SSW,202,0.0,0.0,100,0.00,,,0.00,Rainwise IP-100,2013-01-13 05:26:00,
2013-01-13 00:31:00,35.4,35.0,29.67,SSW,202,0.0,0.0,100,0.00,,,0.00,Rainwise IP-100,2013-01-13 05:31:00,
2013-01-13 00:36:00,35.5,36.0,29.67,SSW,202,0.0,0.0,100,0.00,,,0.00,Rainwise IP-100,2013-01-13 05:36:00,
2013-01-13 00:41:00,35.6,36.0,29.67,SSW,202,0.0,0.0,100,0.00,,,0.00,Rainwise IP-100,2013-01-13 05:41:00,
2013-01-13 00:46:00,35.6,36.0,29.67,SSW,202,0.0,0.0,100,0.00,,,0.00,Rainwise IP-100,2013-01-13 05:46:00,
2013-01-13 00:51:00,35.6,36.0,29.67,SSW,202,0.0,0.0,100,0.00,,,0.00,Rainwise IP-100,2013-01-13 05:51:00,
2013-01-13 00:57:00,35.6,36.0,29.67,SSW,202,0.0,0.0,100,0.00,,,0.00,Rainwise IP-100,2013-01-13 05:57:00,
2013-01-13 01:02:00,35.6,36.0,29.67,SSW,202,0.0,0.0,100,0.00,,,0.00,Rainwise IP-100,2013-01-13 06:02:00,
2013-01-13 01:07:00,35.3,35.0,29.66,SSW,202,0.0,0.0,100,0.00,,,0.00,Rainwise IP-100,2013-01-13 06:07:00,
2013-01-13 01:12:00,35.1,35.0,29.67,WSW,247,0.0,0.0,100,0.00,,,0.00,Rainwise IP-100,2013-01-13 06:12:00,
2013-01-13 01:17:00,35.3,35.0,29.67,WSW,247,0.0,0.0,100,0.00,,,0.00,Rainwise IP-100,2013-01-13 06:17:00,
2013-01-13 01:22:00,35.5,36.0,29.68,WSW,247,0.0,0.0,100,0.00,,,0.00,Rainwise IP-100,2013-01-13 06:22:00,
2013-01-13 01:27:00,35.5,36.0,29.68,WSW,247,0.0,0.0,100,0.00,,,0.00,Rainwise IP-100,2013-01-13 06:27:00,
2013-01-13 01:32:00,35.3,35.0,29.68,WSW,247,0.0,0.0,100,0.00,,,0.00,Rainwise IP-100,2013-01-13 06:32:00,
2013-01-13 01:37:00,35.1,35.0,29.68,WSW,247,0.0,0.0,100,0.00,,,0.00,Rainwise IP-100,2013-01-13 06:37:00,
2013-01-13 01:42:00,35.0,35.0,29.67,WSW,247,0.0,0.0,100,0.00,,,0.00,Rainwise IP-100,2013-01-13 06:42:00,
2013-01-13 01:47:00,35.0,35.0,29.68,WSW,247,0.0,0.0,100,0.00,,,0.00,Rainwise IP-100,2013-01-13 06:47:00,
2013-01-13 01:52:00,35.0,35.0,29.68,WSW,247,0.0,0.0,100,0.00,,,0.00,Rainwise IP-100,2013-01-13 06:52:00,
2013-01-13 01:57:00,35.0,35.0,29.68,WSW,247,0.0,0.0,100,0.00,,,0.00,Rainwise IP-100,2013-01-13 06:57:00,
2013-01-13 02:02:00,34.9,35.0,29.68,WSW,247,0.0,0.0,100,0.00,,,0.00,Rainwise IP-100,2013-01-13 07:02:00,
2013-01-13 02:08:00,34.9,35.0,29.68,WSW,247,0.0,0.0,100,0.00,,,0.00,Rainwise IP-100,2013-01-13 07:08:00,
2013-01-13 02:13:00,34.8,35.0,29.68,WSW,247,0.0,0.0,100,0.00,,,0.00,Rainwise IP-100,2013-01-13 07:13:00,
2013-01-13 02:18:00,34.8,35.0,29.68,WSW,247,0.0,0.0,100,0.00,,,0.00,Rainwise IP-100,2013-01-13 07:18:00,
2013-01-13 02:23:00,34.7,35.0,29.68,WSW,247,0.0,0.0,100,0.00,,,0.00,Rainwise IP-100,2013-01-13 07:23:00,
2013-01-13 02:28:00,34.6,35.0,29.68,WSW,247,0.0,0.0,100,0.00,,,0.00,Rainwise IP-100,2013-01-13 07:28:00,
2013-01-13 02:33:00,34.7,35.0,29.69,WSW,247,0.0,0.0,100,0.00,,,0.00,Rainwise IP-100,2013-01-13 07:33:00,
2013-01-13 02:38:00,34.7,35.0,29.69,WSW,247,0.0,0.0,100,0.00,,,0.00,Rainwise IP-100,2013-01-13 07:38:00,
2013-01-13 02:43:00,34.7,35.0,29.69,WSW,247,0.0,0.0,100,0.00,,,0.00,Rainwise IP-100,2013-01-13 07:43:00,
2013-01-13 02:48:00,34.5,35.0,29.69,WSW,247,0.0,0.0,100,0.00,,,0.00,Rainwise IP-100,2013-01-13 07:48:00,
2013-01-13 02:53:00,34.5,35.0,29.69,WSW,247,0.0,0.0,100,0.00,,,0.00,Rainwise IP-100,2013-01-13 07:53:00,
2013-01-13 02:58:00,34.6,35.0,29.69,WSW,247,0.0,0.0,100,0.00,,,0.00,Rainwise IP-100,2013-01-13 07:58:00,
2013-01-13 03:03:00,34.7,35.0,29.69,WSW,247,0.0,0.0,100,0.00,,,0.00,Rainwise IP-100,2013-01-13 08:03:00,
2013-01-13 03:08:00,34.7,35.0,29.69,WSW,247,0.0,0.0,100,0.00,,,0.00,Rainwise IP-100,2013-01-13 08:08:00,
2013-01-13 03:13:00,34.7,35.0,29.69,WSW,247,0.0,0.0,100,0.00,,,0.00,Rainwise IP-100,2013-01-13 08:13:00,
2013-01-13 03:18:00,34.6,35.0,29.69,WSW,247,0.0,1.4,100,0.00,,,0.00,Rainwise IP-100,2013-01-13 08:18:00,
2013-01-13 03:24:00,34.5,35.0,29.68,WSW,247,0.0,1.4,100,0.00,,,0.00,Rainwise IP-100,2013-01-13 08:24:00,
2013-01-13 03:29:00,34.6,35.0,29.68,WSW,247,0.0,0.0,100,0.00,,,0.00,Rainwise IP-100,2013-01-13 08:29:00,
2013-01-13 03:34:00,34.5,35.0,29.67,WSW,247,0.0,0.0,100,0.00,,,0.00,Rainwise IP-100,2013-01-13 08:34:00,
2013-01-13 03:39:00,34.3,35.0,29.67,WSW,247,0.0,0.0,100,0.00,,,0.00,Rainwise IP-100,2013-01-13 08:39:00,
2013-01-13 03:44:00,34.1,35.0,29.67,WSW,247,0.0,0.0,100,0.00,,,0.00,Rainwise IP-100,2013-01-13 08:44:00,
2013-01-13 03:49:00,34.1,35.0,29.66,WSW,247,0.0,0.0,100,0.00,,,0.00,Rainwise IP-100,2013-01-13 08:49:00,
2013-01-13 03:54:00,34.1,35.0,29.67,WSW,247,0.0,1.2,100,0.00,,,0.00,Rainwise IP-100,2013-01-13 08:54:00,
2013-01-13 03:59:00,34.2,35.0,29.68,WSW,247,1.6,1.6,100,0.00,,,0.00,Rainwise IP-100,2013-01-13 08:59:00,
2013-01-13 04:00:00,34.3,35.0,29.67,WSW,247,0.0,1.6,100,0.00,,,0.00,Rainwise IP-100,2013-01-13 09:00:00,
2013-01-13 04:03:00,34.4,35.0,29.67,NNE,22,3.3,3.3,100,0.00,,,0.00,Rainwise IP-100,2013-01-13 09:03:00,
2013-01-13 04:08:00,34.1,35.0,29.66,NNE,22,1.9,4.4,100,0.00,,,0.00,Rainwise IP-100,2013-01-13 09:08:00,
2013-01-13 04:13:00,33.8,35.0,29.67,NNE,22,1.2,1.9,100,0.00,,,0.00,Rainwise IP-100,2013-01-13 09:13:00,
2013-01-13 04:18:00,33.9,35.0,29.67,NNE,22,1.4,1.4,100,0.00,,,0.00,Rainwise IP-100,2013-01-13 09:18:00,
2013-01-13 04:23:00,34.2,35.0,29.68,NNE,22,0.0,1.6,100,0.00,,,0.00,Rainwise IP-100,2013-01-13 09:23:00,
2013-01-13 04:28:00,34.5,35.0,29.68,NNE,22,1.2,1.2,100,0.00,,,0.00,Rainwise IP-100,2013-01-13 09:28:00,
2013-01-13 04:34:00,34.3,35.0,29.68,NNE,22,1.2,1.6,100,0.00,,,0.00,Rainwise IP-100,2013-01-13 09:34:00,
2013-01-13 04:39:00,34.0,35.0,29.67,NNE,22,0.0,1.9,100,0.00,,,0.00,Rainwise IP-100,2013-01-13 09:39:00,
2013-01-13 04:44:00,34.1,35.0,29.67,SSE,157,1.2,4.9,100,0.00,,,0.00,Rainwise IP-100,2013-01-13 09:44:00,
2013-01-13 04:49:00,34.2,35.0,29.66,SSE,157,0.0,3.7,100,0.00,,,0.00,Rainwise IP-100,2013-01-13 09:49:00,
2013-01-13 04:54:00,34.5,35.0,29.66,SSE,157,0.0,0.0,100,0.00,,,0.00,Rainwise IP-100,2013-01-13 09:54:00,
2013-01-13 04:59:00,34.7,35.0,29.65,NNW,337,2.6,3.0,100,0.00,,,0.00,Rainwise IP-100,2013-01-13 09:59:00,
2013-01-13 05:04:00,34.8,35.0,29.66,NNW,337,0.0,2.8,100,0.00,,,0.00,Rainwise IP-100,2013-01-13 10:04:00,
2013-01-13 05:09:00,34.9,35.0,29.67,NNW,337,0.0,0.0,100,0.00,,,0.00,Rainwise IP-100,2013-01-13 10:09:00,
2013-01-13 05:14:00,34.7,35.0,29.65,NNW,337,0.0,0.0,100,0.00,,,0.00,Rainwise IP-100,2013-01-13 10:14:00,
2013-01-13 05:19:00,34.2,35.0,29.65,NNW,337,0.0,1.2,100,0.00,,,0.00,Rainwise IP-100,2013-01-13 10:19:00,
2013-01-13 05:24:00,34.1,35.0,29.66,NNW,337,0.0,0.0,100,0.00,,,0.00,Rainwise IP-100,2013-01-13 10:24:00,
2013-01-13 05:29:00,34.2,35.0,29.66,NNW,337,1.2,1.9,100,0.00,,,0.00,Rainwise IP-100,2013-01-13 10:29:00,
2013-01-13 05:34:00,34.3,35.0,29.66,NNW,337,0.0,1.2,100,0.00,,,0.00,Rainwise IP-100,2013-01-13 10:34:00,
2013-01-13 05:39:00,34.3,35.0,29.66,NNW,337,0.0,0.0,100,0.00,,,0.00,Rainwise IP-100,2013-01-13 10:39:00,
2013-01-13 05:44:00,34.4,35.0,29.66,NNW,337,0.0,0.0,100,0.00,,,0.00,Rainwise IP-100,2013-01-13 10:44:00,
2013-01-13 05:50:00,34.3,35.0,29.65,NNW,337,0.0,0.0,100,0.00,,,0.00,Rainwise IP-100,2013-01-13 10:50:00,
2013-01-13 05:55:00,34.0,35.0,29.66,NNW,337,2.1,2.1,100,0.00,,,0.00,Rainwise IP-100,2013-01-13 10:55:00,
2013-01-13 06:00:00,33.9,35.0,29.65,NNW,337,1.6,2.6,100,0.00,,,0.01,Rainwise IP-100,2013-01-13 11:00:00,
2013-01-13 06:05:00,34.0,35.0,29.65,NNW,337,0.0,2.3,100,0.06,,,0.01,Rainwise IP-100,2013-01-13 11:05:00,
2013-01-13 06:10:00,34.1,35.0,29.65,NNW,337,0.0,0.0,100,0.00,,,0.01,Rainwise IP-100,2013-01-13 11:10:00,
2013-01-13 06:15:00,34.2,35.0,29.66,NNW,337,0.0,0.0,100,0.00,,,0.01,Rainwise IP-100,2013-01-13 11:15:00,
2013-01-13 06:20:00,34.3,35.0,29.66,NNW,337,0.0,1.2,100,0.00,,,0.01,Rainwise IP-100,2013-01-13 11:20:00,
2013-01-13 06:25:00,34.2,35.0,29.65,NNW,337,0.0,1.2,100,0.00,,,0.01,Rainwise IP-100,2013-01-13 11:25:00,
2013-01-13 06:30:00,34.0,35.0,29.65,NNW,337,0.0,0.0,100,0.00,,,0.01,Rainwise IP-100,2013-01-13 11:30:00,
2013-01-13 06:35:00,33.7,35.0,29.65,NNW,337,0.0,0.0,100,0.00,,,0.01,Rainwise IP-100,2013-01-13 11:35:00,
2013-01-13 06:40:00,33.8,35.0,29.65,NNW,337,0.0,0.0,100,0.00,,,0.01,Rainwise IP-100,2013-01-13 11:40:00,
2013-01-13 06:45:00,33.9,35.0,29.65,NNW,337,0.0,0.0,100,0.00,,,0.01,Rainwise IP-100,2013-01-13 11:45:00,
2013-01-13 06:50:00,33.9,35.0,29.64,SW,225,2.6,2.8,100,0.00,,,0.01,Rainwise IP-100,2013-01-13 11:50:00,
2013-01-13 06:55:00,34.1,35.0,29.65,SW,225,0.0,2.6,100,0.00,,,0.01,Rainwise IP-100,2013-01-13 11:55:00,
2013-01-13 07:00:00,34.3,35.0,29.65,SW,225,0.0,1.2,100,0.00,,,0.01,Rainwise IP-100,2013-01-13 12:00:00,
2013-01-13 07:06:00,34.3,35.0,29.66,SW,225,0.0,1.2,100,0.00,,,0.01,Rainwise IP-100,2013-01-13 12:06:00,
2013-01-13 07:11:00,34.3,35.0,29.66,SW,225,0.0,0.0,100,0.00,,,0.01,Rainwise IP-100,2013-01-13 12:11:00,
2013-01-13 07:16:00,34.1,35.0,29.66,SW,225,0.0,0.0,100,0.00,,,0.01,Rainwise IP-100,2013-01-13 12:16:00,
2013-01-13 07:21:00,33.9,35.0,29.67,SW,225,0.0,0.0,100,0.00,,,0.01,Rainwise IP-100,2013-01-13 12:21:00,
2013-01-13 07:26:00,33.8,35.0,29.67,SW,225,1.9,2.1,100,0.00,,,0.01,Rainwise IP-100,2013-01-13 12:26:00,
2013-01-13 07:31:00,33.9,35.0,29.68,SW,225,0.0,1.9,100,0.00,,,0.01,Rainwise IP-100,2013-01-13 12:31:00,
2013-01-13 07:36:00,34.0,35.0,29.67,SSW,202,0.0,1.9,100,0.00,,,0.01,Rainwise IP-100,2013-01-13 12:36:00,
2013-01-13 07:41:00,34.0,35.0,29.67,SSW,202,2.3,2.6,100,0.00,,,0.01,Rainwise IP-100,2013-01-13 12:41:00,
2013-01-13 07:46:00,34.1,35.0,29.68,SSW,202,1.2,2.6,100,0.00,,,0.01,Rainwise IP-100,2013-01-13 12:46:00,
2013-01-13 07:51:00,34.3,35.0,29.68,SSW,202,0.0,2.6,100,0.00,,,0.01,Rainwise IP-100,2013-01-13 12:51:00,
2013-01-13 07:56:00,34.3,35.0,29.68,SSW,202,0.0,0.0,100,0.00,,,0.01,Rainwise IP-100,2013-01-13 12:56:00,
2013-01-13 08:01:00,34.1,35.0,29.68,SSW,202,0.0,0.0,100,0.00,,,0.01,Rainwise IP-100,2013-01-13 13:01:00,
2013-01-13 08:06:00,33.9,35.0,29.68,SSW,202,0.0,0.0,100,0.00,,,0.01,Rainwise IP-100,2013-01-13 13:06:00,
2013-01-13 08:11:00,33.9,35.0,29.68,SSW,202,0.0,0.0,100,0.00,,,0.01,Rainwise IP-100,2013-01-13 13:11:00,
2013-01-13 08:16:00,34.0,35.0,29.68,SSW,202,0.0,0.0,100,0.00,,,0.01,Rainwise IP-100,2013-01-13 13:16:00,
2013-01-13 08:22:00,34.2,35.0,29.69,SSW,202,0.0,0.0,100,0.00,,,0.01,Rainwise IP-100,2013-01-13 13:22:00,
2013-01-13 08:27:00,34.5,35.0,29.69,SSW,202,0.0,1.6,100,0.00,,,0.01,Rainwise IP-100,2013-01-13 13:27:00,
2013-01-13 08:32:00,34.6,35.0,29.69,SSW,202,0.0,1.2,100,0.00,,,0.01,Rainwise IP-100,2013-01-13 13:32:00,
2013-01-13 08:37:00,34.5,35.0,29.68,SSW,202,0.0,0.0,100,0.00,,,0.01,Rainwise IP-100,2013-01-13 13:37:00,
2013-01-13 08:42:00,34.5,35.0,29.67,SSW,202,0.0,0.0,100,0.00,,,0.01,Rainwise IP-100,2013-01-13 13:42:00,
2013-01-13 08:47:00,34.5,35.0,29.67,SSW,202,0.0,0.0,100,0.00,,,0.01,Rainwise IP-100,2013-01-13 13:47:00,
2013-01-13 08:52:00,34.5,35.0,29.68,SSW,202,0.0,0.0,100,0.00,,,0.01,Rainwise IP-100,2013-01-13 13:52:00,
2013-01-13 08:57:00,34.6,35.0,29.68,SSW,202,0.0,1.2,100,0.00,,,0.01,Rainwise IP-100,2013-01-13 13:57:00,
2013-01-13 09:02:00,34.7,35.0,29.68,SSW,202,0.0,0.0,100,0.00,,,0.01,Rainwise IP-100,2013-01-13 14:02:00,
2013-01-13 09:07:00,34.9,35.0,29.68,SSW,202,0.0,0.0,100,0.00,,,0.01,Rainwise IP-100,2013-01-13 14:07:00,
2013-01-13 09:12:00,35.0,35.0,29.68,SSW,202,0.0,0.0,100,0.00,,,0.01,Rainwise IP-100,2013-01-13 14:12:00,
2013-01-13 09:17:00,35.2,35.0,29.68,SSW,202,0.0,0.0,100,0.00,,,0.01,Rainwise IP-100,2013-01-13 14:17:00,
2013-01-13 09:22:00,35.3,35.0,29.68,SSW,202,0.0,0.0,100,0.00,,,0.01,Rainwise IP-100,2013-01-13 14:22:00,
2013-01-13 09:27:00,35.5,36.0,29.68,SSW,202,0.0,0.0,100,0.00,,,0.01,Rainwise IP-100,2013-01-13 14:27:00,
2013-01-13 09:32:00,35.6,36.0,29.68,SSW,202,0.0,0.0,100,0.00,,,0.01,Rainwise IP-100,2013-01-13 14:32:00,
2013-01-13 09:38:00,35.6,36.0,29.67,SSW,202,0.0,0.0,100,0.00,,,0.01,Rainwise IP-100,2013-01-13 14:38:00,
2013-01-13 09:43:00,35.6,36.0,29.67,SSW,202,0.0,0.0,100,0.00,,,0.01,Rainwise IP-100,2013-01-13 14:43:00,
2013-01-13 09:48:00,35.9,36.0,29.68,SSW,202,0.0,0.0,100,0.00,,,0.01,Rainwise IP-100,2013-01-13 14:48:00,
2013-01-13 09:53:00,36.1,36.0,29.67,SSW,202,0.0,0.0,100,0.00,,,0.01,Rainwise IP-100,2013-01-13 14:53:00,
2013-01-13 09:58:00,36.2,36.0,29.67,SSW,202,0.0,0.0,100,0.00,,,0.01,Rainwise IP-100,2013-01-13 14:58:00,
2013-01-13 10:03:00,36.3,36.0,29.67,SSW,202,0.0,0.0,100,0.00,,,0.01,Rainwise IP-100,2013-01-13 15:03:00,
2013-01-13 10:08:00,36.3,36.0,29.67,SSW,202,0.0,0.0,100,0.00,,,0.01,Rainwise IP-100,2013-01-13 15:08:00,
2013-01-13 10:13:00,36.3,36.0,29.67,SSW,202,0.0,0.0,100,0.00,,,0.01,Rainwise IP-100,2013-01-13 15:13:00,
2013-01-13 10:18:00,36.4,36.0,29.67,SSW,202,0.0,0.0,100,0.00,,,0.01,Rainwise IP-100,2013-01-13 15:18:00,
2013-01-13 10:23:00,36.4,36.0,29.67,SSW,202,0.0,0.0,100,0.00,,,0.01,Rainwise IP-100,2013-01-13 15:23:00,
2013-01-13 10:28:00,36.4,36.0,29.67,SSW,202,0.0,0.0,100,0.00,,,0.01,Rainwise IP-100,2013-01-13 15:28:00,
2013-01-13 10:33:00,36.6,37.0,29.66,SSW,202,0.0,0.0,100,0.00,,,0.01,Rainwise IP-100,2013-01-13 15:33:00,
2013-01-13 10:38:00,36.9,37.0,29.66,SSW,202,0.0,0.0,100,0.00,,,0.01,Rainwise IP-100,2013-01-13 15:38:00,
2013-01-13 10:43:00,37.1,37.0,29.66,SSW,202,1.2,0.0,100,0.00,,,0.01,Rainwise IP-100,2013-01-13 15:43:00,
2013-01-13 10:48:00,37.2,37.0,29.65,SSW,202,1.9,3.5,100,0.00,,,0.01,Rainwise IP-100,2013-01-13 15:48:00,
2013-01-13 10:54:00,37.2,37.0,29.65,SSW,202,0.0,2.1,100,0.00,,,0.01,Rainwise IP-100,2013-01-13 15:54:00,
2013-01-13 10:59:00,37.2,37.0,29.65,SSW,202,0.0,0.0,100,0.00,,,0.01,Rainwise IP-100,2013-01-13 15:59:00,
2013-01-13 11:04:00,37.4,37.0,29.64,SSW,202,0.0,1.4,100,0.00,,,0.01,Rainwise IP-100,2013-01-13 16:04:00,
2013-01-13 11:09:00,37.6,38.0,29.64,SSW,202,0.0,1.2,100,0.00,,,0.01,Rainwise IP-100,2013-01-13 16:09:00,
2013-01-13 11:14:00,37.9,38.0,29.64,SSW,202,0.0,0.0,100,0.00,,,0.01,Rainwise IP-100,2013-01-13 16:14:00,
2013-01-13 11:19:00,38.2,38.0,29.65,SSW,202,0.0,1.2,100,0.00,,,0.01,Rainwise IP-100,2013-01-13 16:19:00,
2013-01-13 11:24:00,38.3,38.0,29.64,SW,225,1.6,2.6,100,0.00,,,0.01,Rainwise IP-100,2013-01-13 16:24:00,
2013-01-13 11:29:00,38.4,38.0,29.64,WSW,247,2.1,4.4,100,0.00,,,0.01,Rainwise IP-100,2013-01-13 16:29:00,
2013-01-13 11:34:00,38.3,38.0,29.64,WSW,247,0.0,4.9,100,0.00,,,0.01,Rainwise IP-100,2013-01-13 16:34:00,
2013-01-13 11:39:00,38.4,38.0,29.64,SW,225,4.2,4.4,100,0.00,,,0.01,Rainwise IP-100,2013-01-13 16:39:00,
2013-01-13 11:44:00,38.6,39.0,29.63,SSW,202,2.1,5.1,100,0.00,,,0.01,Rainwise IP-100,2013-01-13 16:44:00,
2013-01-13 11:49:00,38.8,39.0,29.62,SSW,202,1.4,2.6,100,0.00,,,0.01,Rainwise IP-100,2013-01-13 16:49:00,
2013-01-13 11:54:00,39.1,39.0,29.62,SSW,202,1.9,3.3,100,0.00,,,0.01,Rainwise IP-100,2013-01-13 16:54:00,
2013-01-13 11:59:00,39.3,39.0,29.61,SSW,202,1.4,2.3,100,0.00,,,0.01,Rainwise IP-100,2013-01-13 16:59:00,
2013-01-13 12:04:00,39.5,40.0,29.61,SSW,202,0.0,2.1,100,0.00,,,0.01,Rainwise IP-100,2013-01-13 17:04:00,
2013-01-13 12:10:00,39.6,40.0,29.61,SSW,202,0.0,1.4,100,0.00,,,0.01,Rainwise IP-100,2013-01-13 17:10:00,
2013-01-13 12:15:00,39.7,40.0,29.61,WSW,247,2.1,4.9,100,0.00,,,0.01,Rainwise IP-100,2013-01-13 17:15:00,
2013-01-13 12:20:00,39.5,40.0,29.61,West,270,2.3,4.7,100,0.00,,,0.01,Rainwise IP-100,2013-01-13 17:20:00,
2013-01-13 12:25:00,39.3,39.0,29.61,WSW,247,2.6,5.4,100,0.00,,,0.01,Rainwise IP-100,2013-01-13 17:25:00,
2013-01-13 12:30:00,39.3,39.0,29.60,SW,225,4.0,5.8,100,0.00,,,0.01,Rainwise IP-100,2013-01-13 17:30:00,
2013-01-13 12:35:00,39.3,39.0,29.61,SW,225,4.9,5.4,100,0.00,,,0.01,Rainwise IP-100,2013-01-13 17:35:00,
2013-01-13 12:40:00,39.4,39.0,29.60,SSW,202,4.9,5.8,100,0.00,,,0.01,Rainwise IP-100,2013-01-13 17:40:00,
2013-01-13 12:45:00,39.5,40.0,29.59,SSW,202,3.3,5.4,100,0.00,,,0.01,Rainwise IP-100,2013-01-13 17:45:00,
2013-01-13 12:50:00,39.6,40.0,29.59,SW,225,0.0,5.1,100,0.00,,,0.01,Rainwise IP-100,2013-01-13 17:50:00,
2013-01-13 12:55:00,39.7,40.0,29.59,SW,225,0.0,0.0,100,0.00,,,0.01,Rainwise IP-100,2013-01-13 17:55:00,
2013-01-13 13:00:00,39.7,40.0,29.58,WSW,247,0.0,0.0,100,0.00,,,0.01,Rainwise IP-100,2013-01-13 18:00:00,
2013-01-13 13:05:00,39.8,40.0,29.58,WSW,247,0.0,0.0,100,0.00,,,0.01,Rainwise IP-100,2013-01-13 18:05:00,
2013-01-13 13:10:00,40.0,40.0,29.58,WSW,247,0.0,1.6,100,0.00,,,0.01,Rainwise IP-100,2013-01-13 18:10:00,
2013-01-13 13:15:00,40.0,40.0,29.58,WSW,247,0.0,1.6,100,0.00,,,0.01,Rainwise IP-100,2013-01-13 18:15:00,
2013-01-13 13:20:00,40.1,40.0,29.58,WSW,247,0.0,0.0,100,0.00,,,0.01,Rainwise IP-100,2013-01-13 18:20:00,
2013-01-13 13:26:00,40.1,40.0,29.57,WSW,247,0.0,0.0,100,0.00,,,0.01,Rainwise IP-100,2013-01-13 18:26:00,
2013-01-13 13:31:00,40.2,40.0,29.57,WSW,247,0.0,0.0,100,0.00,,,0.01,Rainwise IP-100,2013-01-13 18:31:00,
2013-01-13 13:36:00,40.3,40.0,29.57,WSW,247,0.0,0.0,100,0.00,,,0.01,Rainwise IP-100,2013-01-13 18:36:00,
2013-01-13 13:41:00,40.4,40.0,29.57,WSW,247,0.0,1.6,100,0.00,,,0.01,Rainwise IP-100,2013-01-13 18:41:00,
2013-01-13 13:46:00,40.5,41.0,29.57,WSW,247,0.0,0.0,100,0.00,,,0.01,Rainwise IP-100,2013-01-13 18:46:00,
2013-01-13 13:51:00,40.6,41.0,29.57,WSW,247,0.0,1.2,100,0.00,,,0.01,Rainwise IP-100,2013-01-13 18:51:00,
2013-01-13 13:56:00,40.7,41.0,29.57,WSW,247,0.0,0.0,100,0.00,,,0.01,Rainwise IP-100,2013-01-13 18:56:00,
2013-01-13 14:01:00,40.8,41.0,29.57,WSW,247,0.0,0.0,100,0.00,,,0.01,Rainwise IP-100,2013-01-13 19:01:00,
2013-01-13 14:06:00,40.9,41.0,29.57,WSW,247,0.0,0.0,100,0.00,,,0.01,Rainwise IP-100,2013-01-13 19:06:00,
2013-01-13 14:11:00,40.6,41.0,29.57,WSW,247,0.0,0.0,100,0.00,,,0.01,Rainwise IP-100,2013-01-13 19:11:00,
2013-01-13 14:16:00,40.3,40.0,29.56,WSW,247,0.0,0.0,100,0.00,,,0.01,Rainwise IP-100,2013-01-13 19:16:00,
2013-01-13 14:21:00,40.6,41.0,29.56,South,180,0.0,1.4,100,0.00,,,0.01,Rainwise IP-100,2013-01-13 19:21:00,
2013-01-13 14:26:00,40.7,41.0,29.56,South,180,0.0,0.0,100,0.00,,,0.01,Rainwise IP-100,2013-01-13 19:26:00,
2013-01-13 14:31:00,40.8,41.0,29.56,SW,225,1.9,2.3,100,0.00,,,0.01,Rainwise IP-100,2013-01-13 19:31:00,
2013-01-13 14:36:00,40.9,41.0,29.55,SW,225,0.0,2.1,100,0.00,,,0.01,Rainwise IP-100,2013-01-13 19:36:00,
2013-01-13 14:42:00,40.8,41.0,29.56,ESE,112,0.0,2.1,100,0.00,,,0.01,Rainwise IP-100,2013-01-13 19:42:00,
2013-01-13 14:47:00,40.7,41.0,29.55,SSE,157,0.0,2.8,100,0.00,,,0.01,Rainwise IP-100,2013-01-13 19:47:00,
2013-01-13 14:52:00,40.5,41.0,29.53,ESE,112,0.0,2.3,100,0.00,,,0.01,Rainwise IP-100,2013-01-13 19:52:00,
2013-01-13 14:57:00,40.5,41.0,29.54,North,360,1.6,1.6,100,0.00,,,0.01,Rainwise IP-100,2013-01-13 19:57:00,
2013-01-13 15:02:00,40.7,41.0,29.54,North,360,0.0,1.9,100,0.00,,,0.01,Rainwise IP-100,2013-01-13 20:02:00,
2013-01-13 15:07:00,40.8,41.0,29.54,North,360,0.0,0.0,100,0.00,,,0.01,Rainwise IP-100,2013-01-13 20:07:00,
2013-01-13 15:12:00,41.1,41.0,29.54,SW,225,1.9,3.3,100,0.00,,,0.01,Rainwise IP-100,2013-01-13 20:12:00,
2013-01-13 15:17:00,41.4,41.0,29.54,South,180,2.1,4.2,100,0.00,,,0.01,Rainwise IP-100,2013-01-13 20:17:00,
2013-01-13 15:22:00,41.6,42.0,29.54,SSE,157,1.4,3.3,100,0.00,,,0.01,Rainwise IP-100,2013-01-13 20:22:00,
2013-01-13 15:27:00,41.6,42.0,29.54,SSE,157,0.0,3.3,100,0.00,,,0.01,Rainwise IP-100,2013-01-13 20:27:00,
2013-01-13 15:32:00,41.5,42.0,29.54,SSE,157,0.0,0.0,100,0.00,,,0.01,Rainwise IP-100,2013-01-13 20:32:00,
2013-01-13 15:37:00,41.4,41.0,29.54,SSW,202,2.8,2.8,100,0.00,,,0.01,Rainwise IP-100,2013-01-13 20:37:00,
2013-01-13 15:42:00,41.3,41.0,29.53,South,180,3.5,3.7,100,0.00,,,0.01,Rainwise IP-100,2013-01-13 20:42:00,
2013-01-13 15:47:00,41.4,41.0,29.53,SSE,157,0.0,4.2,100,0.00,,,0.01,Rainwise IP-100,2013-01-13 20:47:00,
2013-01-13 15:52:00,41.3,41.0,29.51,SSE,157,1.9,4.4,100,0.00,,,0.01,Rainwise IP-100,2013-01-13 20:52:00,
2013-01-13 15:58:00,41.3,41.0,29.51,WSW,247,2.8,3.7,100,0.00,,,0.01,Rainwise IP-100,2013-01-13 20:58:00,
2013-01-13 16:03:00,41.5,42.0,29.52,WSW,247,1.2,4.2,100,0.00,,,0.01,Rainwise IP-100,2013-01-13 21:03:00,
2013-01-13 16:08:00,41.8,42.0,29.52,WSW,247,0.0,3.3,100,0.00,,,0.01,Rainwise IP-100,2013-01-13 21:08:00,
2013-01-13 16:13:00,42.1,42.0,29.52,SSW,202,1.2,4.0,100,0.00,,,0.01,Rainwise IP-100,2013-01-13 21:13:00,
2013-01-13 16:18:00,42.1,42.0,29.52,SSW,202,0.0,1.2,100,0.00,,,0.01,Rainwise IP-100,2013-01-13 21:18:00,
2013-01-13 16:23:00,41.6,42.0,29.53,SSW,202,0.0,0.0,100,0.00,,,0.01,Rainwise IP-100,2013-01-13 21:23:00,
2013-01-13 16:28:00,41.2,41.0,29.54,NNW,337,0.0,2.6,100,0.00,,,0.01,Rainwise IP-100,2013-01-13 21:28:00,
2013-01-13 16:33:00,41.2,41.0,29.54,NNW,337,0.0,0.0,100,0.00,,,0.01,Rainwise IP-100,2013-01-13 21:33:00,
2013-01-13 16:38:00,40.8,41.0,29.54,NNW,337,4.0,4.0,100,0.00,,,0.01,Rainwise IP-100,2013-01-13 21:38:00,
2013-01-13 16:43:00,40.4,40.0,29.55,NNW,337,0.0,4.4,100,0.00,,,0.01,Rainwise IP-100,2013-01-13 21:43:00,
2013-01-13 16:48:00,40.8,41.0,29.54,SSE,157,2.1,3.0,100,0.00,,,0.01,Rainwise IP-100,2013-01-13 21:48:00,
2013-01-13 16:53:00,40.7,41.0,29.54,SSW,202,2.3,3.0,100,0.00,,,0.01,Rainwise IP-100,2013-01-13 21:53:00,
2013-01-13 16:58:00,40.6,41.0,29.53,SSW,202,0.0,2.6,100,0.00,,,0.01,Rainwise IP-100,2013-01-13 21:58:00,
2013-01-13 17:03:00,40.5,41.0,29.54,SSW,202,0.0,0.0,100,0.00,,,0.01,Rainwise IP-100,2013-01-13 22:03:00,
2013-01-13 17:08:00,40.6,41.0,29.53,SSW,202,0.0,0.0,100,0.00,,,0.01,Rainwise IP-100,2013-01-13 22:08:00,
2013-01-13 17:14:00,40.9,41.0,29.54,SSW,202,0.0,0.0,100,0.00,,,0.01,Rainwise IP-100,2013-01-13 22:14:00,
2013-01-13 17:19:00,40.8,41.0,29.54,SSW,202,0.0,0.0,100,0.00,,,0.01,Rainwise IP-100,2013-01-13 22:19:00,
2013-01-13 17:24:00,40.7,41.0,29.55,WNW,292,1.2,0.0,100,0.00,,,0.01,Rainwise IP-100,2013-01-13 22:24:00,
2013-01-13 17:29:00,40.8,41.0,29.55,NNW,337,0.0,2.6,100,0.00,,,0.01,Rainwise IP-100,2013-01-13 22:29:00,
2013-01-13 17:34:00,40.9,41.0,29.54,NNW,337,0.0,2.3,100,0.00,,,0.01,Rainwise IP-100,2013-01-13 22:34:00,
2013-01-13 17:39:00,40.7,41.0,29.55,NNW,337,0.0,0.0,100,0.00,,,0.01,Rainwise IP-100,2013-01-13 22:39:00,
2013-01-13 17:44:00,40.7,41.0,29.54,NNW,337,0.0,0.0,100,0.00,,,0.01,Rainwise IP-100,2013-01-13 22:44:00,
2013-01-13 17:49:00,40.9,41.0,29.55,NNW,337,0.0,1.4,100,0.00,,,0.01,Rainwise IP-100,2013-01-13 22:49:00,
2013-01-13 17:54:00,41.0,41.0,29.54,NNW,337,0.0,1.2,100,0.00,,,0.01,Rainwise IP-100,2013-01-13 22:54:00,
2013-01-13 17:59:00,40.9,41.0,29.54,NNW,337,0.0,0.0,100,0.00,,,0.01,Rainwise IP-100,2013-01-13 22:59:00,
2013-01-13 18:04:00,40.6,41.0,29.54,NNW,337,0.0,0.0,100,0.00,,,0.01,Rainwise IP-100,2013-01-13 23:04:00,
2013-01-13 18:09:00,40.3,40.0,29.55,NNW,337,2.3,2.3,100,0.00,,,0.01,Rainwise IP-100,2013-01-13 23:09:00,
2013-01-13 18:14:00,39.8,40.0,29.55,NNW,337,1.2,2.3,100,0.00,,,0.01,Rainwise IP-100,2013-01-13 23:14:00,
2013-01-13 18:19:00,39.6,40.0,29.55,NNW,337,0.0,1.4,100,0.00,,,0.01,Rainwise IP-100,2013-01-13 23:19:00,
2013-01-13 18:24:00,40.3,40.0,29.54,ESE,112,0.0,2.3,100,0.00,,,0.01,Rainwise IP-100,2013-01-13 23:24:00,
2013-01-13 18:30:00,40.8,41.0,29.54,SSW,202,2.3,2.8,100,0.00,,,0.01,Rainwise IP-100,2013-01-13 23:30:00,
2013-01-13 18:35:00,41.1,41.0,29.55,SSW,202,0.0,3.0,100,0.00,,,0.01,Rainwise IP-100,2013-01-13 23:35:00,
2013-01-13 18:40:00,41.6,42.0,29.55,SSW,202,0.0,1.2,100,0.00,,,0.01,Rainwise IP-100,2013-01-13 23:40:00,
2013-01-13 18:45:00,41.8,42.0,29.55,SSW,202,0.0,1.4,100,0.00,,,0.01,Rainwise IP-100,2013-01-13 23:45:00,
2013-01-13 18:50:00,42.1,42.0,29.55,SSW,202,2.6,3.0,100,0.00,,,0.01,Rainwise IP-100,2013-01-13 23:50:00,
2013-01-13 18:55:00,42.3,42.0,29.55,SSW,202,2.6,3.0,100,0.00,,,0.01,Rainwise IP-100,2013-01-13 23:55:00,
2013-01-13 19:00:00,42.4,42.0,29.55,SSW,202,0.0,3.0,100,0.00,,,0.01,Rainwise IP-100,2013-01-14 00:00:00,
2013-01-13 19:05:00,42.2,42.0,29.55,SSW,202,1.2,1.4,100,0.00,,,0.01,Rainwise IP-100,2013-01-14 00:05:00,
2013-01-13 19:10:00,42.3,42.0,29.55,SSW,202,1.9,2.3,100,0.00,,,0.01,Rainwise IP-100,2013-01-14 00:10:00,
2013-01-13 19:15:00,42.6,43.0,29.56,SSW,202,1.6,3.0,100,0.00,,,0.01,Rainwise IP-100,2013-01-14 00:15:00,
2013-01-13 19:20:00,42.8,43.0,29.55,SSE,157,1.9,3.5,100,0.00,,,0.01,Rainwise IP-100,2013-01-14 00:20:00,
2013-01-13 19:25:00,42.9,43.0,29.55,SSW,202,4.2,4.9,100,0.00,,,0.01,Rainwise IP-100,2013-01-14 00:25:00,
2013-01-13 19:30:00,43.0,43.0,29.55,SSW,202,5.8,6.3,100,0.00,,,0.01,Rainwise IP-100,2013-01-14 00:30:00,
2013-01-13 19:35:00,43.2,43.0,29.55,SW,225,2.3,7.2,100,0.00,,,0.01,Rainwise IP-100,2013-01-14 00:35:00,
2013-01-13 19:40:00,43.3,43.0,29.54,SSW,202,6.3,6.5,100,0.00,,,0.01,Rainwise IP-100,2013-01-14 00:40:00,
2013-01-13 19:46:00,43.2,43.0,29.55,SSW,202,1.6,7.5,100,0.00,,,0.01,Rainwise IP-100,2013-01-14 00:46:00,
2013-01-13 19:51:00,43.1,43.0,29.55,SW,225,0.0,2.6,100,0.00,,,0.01,Rainwise IP-100,2013-01-14 00:51:00,
2013-01-13 19:56:00,43.0,43.0,29.55,SSW,202,5.1,5.1,100,0.00,,,0.01,Rainwise IP-100,2013-01-14 00:56:00,
2013-01-13 20:01:00,42.9,43.0,29.55,SW,225,3.0,6.1,100,0.00,,,0.01,Rainwise IP-100,2013-01-14 01:01:00,
2013-01-13 20:07:00,42.7,43.0,29.54,SSW,202,0.0,4.4,100,0.00,,,0.01,Rainwise IP-100,2013-01-14 01:07:00,
2013-01-13 20:12:00,41.9,42.0,29.55,South,180,4.4,0.0,100,0.00,,,0.01,Rainwise IP-100,2013-01-14 01:12:00,
2013-01-13 20:17:00,41.4,41.0,29.55,SE,135,0.0,4.9,100,0.00,,,0.01,Rainwise IP-100,2013-01-14 01:17:00,
2013-01-13 20:22:00,41.1,41.0,29.55,East,90,0.0,1.6,100,0.00,,,0.01,Rainwise IP-100,2013-01-14 01:22:00,
2013-01-13 20:27:00,41.1,41.0,29.55,East,90,0.0,0.0,100,0.00,,,0.01,Rainwise IP-100,2013-01-14 01:27:00,
2013-01-13 20:32:00,41.6,42.0,29.55,East,90,0.0,0.0,100,0.00,,,0.01,Rainwise IP-100,2013-01-14 01:32:00,
2013-01-13 20:37:00,41.8,42.0,29.55,SSW,202,1.6,3.3,100,0.00,,,0.01,Rainwise IP-100,2013-01-14 01:37:00,
2013-01-13 20:42:00,41.7,42.0,29.54,SSW,202,0.0,4.2,100,0.00,,,0.01,Rainwise IP-100,2013-01-14 01:42:00,
2013-01-13 20:47:00,41.1,41.0,29.53,ESE,112,0.0,0.0,100,0.00,,,0.01,Rainwise IP-100,2013-01-14 01:47:00,
2013-01-13 20:52:00,40.5,41.0,29.53,ENE,67,1.4,1.6,100,0.00,,,0.01,Rainwise IP-100,2013-01-14 01:52:00,
2013-01-13 20:57:00,40.8,41.0,29.54,ENE,67,0.0,1.6,100,0.00,,,0.01,Rainwise IP-100,2013-01-14 01:57:00,
2013-01-13 21:02:00,41.2,41.0,29.54,ENE,67,0.0,1.4,100,0.00,,,0.01,Rainwise IP-100,2013-01-14 02:02:00,
2013-01-13 21:07:00,40.8,41.0,29.52,ENE,67,0.0,2.3,100,0.00,,,0.01,Rainwise IP-100,2013-01-14 02:07:00,
2013-01-13 21:12:00,40.2,40.0,29.52,ENE,67,0.0,1.4,100,0.00,,,0.01,Rainwise IP-100,2013-01-14 02:12:00,
2013-01-13 21:17:00,40.5,41.0,29.53,ENE,67,0.0,0.0,100,0.00,,,0.01,Rainwise IP-100,2013-01-14 02:17:00,
2013-01-13 21:23:00,40.9,41.0,29.53,ENE,67,0.0,0.0,100,0.00,,,0.01,Rainwise IP-100,2013-01-14 02:23:00,
2013-01-13 21:28:00,40.9,41.0,29.52,ENE,67,0.0,0.0,100,0.00,,,0.01,Rainwise IP-100,2013-01-14 02:28:00,
2013-01-13 21:33:00,40.7,41.0,29.53,ENE,67,0.0,0.0,100,0.00,,,0.01,Rainwise IP-100,2013-01-14 02:33:00,
2013-01-13 21:38:00,40.4,40.0,29.53,ENE,67,0.0,0.0,100,0.00,,,0.01,Rainwise IP-100,2013-01-14 02:38:00,
2013-01-13 21:43:00,39.9,40.0,29.52,NNE,22,3.0,3.0,100,0.00,,,0.01,Rainwise IP-100,2013-01-14 02:43:00,
2013-01-13 21:48:00,39.6,40.0,29.51,NNE,22,2.3,3.5,100,0.00,,,0.01,Rainwise IP-100,2013-01-14 02:48:00,
2013-01-13 21:53:00,39.4,39.0,29.52,NNE,22,0.0,2.8,100,0.00,,,0.01,Rainwise IP-100,2013-01-14 02:53:00,
2013-01-13 21:58:00,39.4,39.0,29.51,SSW,202,0.0,3.5,100,0.00,,,0.01,Rainwise IP-100,2013-01-14 02:58:00,
2013-01-13 22:03:00,39.4,39.0,29.52,SSW,202,0.0,1.6,100,0.00,,,0.01,Rainwise IP-100,2013-01-14 03:03:00,
2013-01-13 22:08:00,39.4,39.0,29.52,SSW,202,0.0,0.0,100,0.00,,,0.01,Rainwise IP-100,2013-01-14 03:08:00,
2013-01-13 22:13:00,39.2,39.0,29.52,SSW,202,0.0,0.0,100,0.00,,,0.01,Rainwise IP-100,2013-01-14 03:13:00,
2013-01-13 22:18:00,39.0,39.0,29.52,SSW,202,0.0,0.0,100,0.00,,,0.01,Rainwise IP-100,2013-01-14 03:18:00,
2013-01-13 22:23:00,38.5,39.0,29.51,SSW,202,0.0,0.0,100,0.00,,,0.01,Rainwise IP-100,2013-01-14 03:23:00,
2013-01-13 22:28:00,38.4,38.0,29.53,NNW,337,1.6,3.3,100,0.00,,,0.01,Rainwise IP-100,2013-01-14 03:28:00,
2013-01-13 22:33:00,38.4,38.0,29.53,NNW,337,1.4,2.6,100,0.00,,,0.01,Rainwise IP-100,2013-01-14 03:33:00,
2013-01-13 22:39:00,38.4,38.0,29.52,NNW,337,0.0,1.6,100,0.00,,,0.01,Rainwise IP-100,2013-01-14 03:39:00,
2013-01-13 22:44:00,38.3,38.0,29.52,NNW,337,0.0,0.0,100,0.00,,,0.01,Rainwise IP-100,2013-01-14 03:44:00,
2013-01-13 22:49:00,38.4,38.0,29.52,NNW,337,0.0,1.6,100,0.00,,,0.01,Rainwise IP-100,2013-01-14 03:49:00,
2013-01-13 22:54:00,38.3,38.0,29.52,NNW,337,0.0,1.6,100,0.00,,,0.01,Rainwise IP-100,2013-01-14 03:54:00,
2013-01-13 22:59:00,38.2,38.0,29.52,NNW,337,1.2,1.4,100,0.00,,,0.01,Rainwise IP-100,2013-01-14 03:59:00,
2013-01-13 23:04:00,38.2,38.0,29.52,NNW,337,0.0,1.2,100,0.00,,,0.01,Rainwise IP-100,2013-01-14 04:04:00,
2013-01-13 23:09:00,38.2,38.0,29.53,NNW,337,0.0,1.4,100,0.00,,,0.01,Rainwise IP-100,2013-01-14 04:09:00,
2013-01-13 23:14:00,38.1,38.0,29.53,NNW,337,1.6,1.6,100,0.00,,,0.01,Rainwise IP-100,2013-01-14 04:14:00,
2013-01-13 23:19:00,38.3,38.0,29.53,NNW,337,0.0,2.3,100,0.00,,,0.01,Rainwise IP-100,2013-01-14 04:19:00,
2013-01-13 23:24:00,38.5,39.0,29.53,NNW,337,0.0,0.0,100,0.00,,,0.01,Rainwise IP-100,2013-01-14 04:24:00,
2013-01-13 23:29:00,38.6,39.0,29.53,NNW,337,0.0,0.0,100,0.00,,,0.01,Rainwise IP-100,2013-01-14 04:29:00,
2013-01-13 23:34:00,38.9,39.0,29.53,NNW,337,0.0,0.0,100,0.00,,,0.01,Rainwise IP-100,2013-01-14 04:34:00,
2013-01-13 23:39:00,39.4,39.0,29.53,NNW,337,0.0,0.0,100,0.00,,,0.01,Rainwise IP-100,2013-01-14 04:39:00,
2013-01-13 23:44:00,39.7,40.0,29.53,SSE,157,0.0,4.0,100,0.00,,,0.01,Rainwise IP-100,2013-01-14 04:44:00,
2013-01-13 23:49:00,39.5,40.0,29.53,SSE,157,0.0,2.1,100,0.00,,,0.01,Rainwise IP-100,2013-01-14 04:49:00,
2013-01-13 23:55:00,39.1,39.0,29.53,SSE,157,0.0,0.0,100,0.00,,,0.01,Rainwise IP-100,2013-01-14 04:55:00,